| time (UTC) | temp C | wind direction | speed KPH | gust KPH | rain 1hr cm | rain 24hr cm | rain mn cm | humidity % | barometer mb |
| 20260504081520 | 6 | 360 | 1.6 | 0.0 | 0.00 | 0.00 | 0.00 | 64 | 1001.4 |
| 20260504050019 | 10 | 360 | 1.6 | 0.0 | 0.00 | 0.00 | 0.00 | 52 | 1000.6 |
| 20260504044618 | 11 | 360 | 0.0 | 0.0 | 0.00 | 0.00 | 0.00 | 49 | 1000.5 |
| 20260504043017 | 11 | 360 | 0.0 | 0.0 | 0.00 | 0.00 | 0.00 | 48 | 1000.5 |
| 20260504041516 | 12 | 360 | 3.2 | 0.0 | 0.00 | 0.00 | 0.00 | 46 | 1000.3 |
| 20260504040017 | 13 | 360 | 0.0 | 0.0 | 0.00 | 0.00 | 0.00 | 42 | 1000.3 |
| 20260504034617 | 16 | 360 | 0.0 | 0.0 | 0.00 | 0.00 | 0.00 | 36 | 1000.2 |
| 20260504033017 | 16 | 360 | 0.0 | 0.0 | 0.00 | 0.00 | 0.00 | 35 | 1000.1 |
| 20260504031517 | 17 | 255 | 0.0 | 0.0 | 0.00 | 0.00 | 0.00 | 32 | 999.9 |
| 20260504030016 | 18 | 255 | 0.0 | 0.0 | 0.00 | 0.00 | 0.00 | 30 | 999.9 |
| 20260504024616 | 20 | 254 | 0.0 | 0.0 | 0.00 | 0.00 | 0.00 | 28 | 999.7 |
| 20260504023017 | 21 | 360 | 0.0 | 0.0 | 0.00 | 0.00 | 0.00 | 25 | 999.4 |
| 20260504021519 | 21 | 202 | 3.2 | 0.0 | 0.00 | 0.00 | 0.00 | 25 | 999.4 |
| 20260504020017 | 22 | 208 | 0.0 | 0.0 | 0.00 | 0.00 | 0.00 | 24 | 999.5 |
| 20260504014616 | 22 | 166 | 0.0 | 0.0 | 0.00 | 0.00 | 0.00 | 21 | 999.5 |
| 20260504013021 | 23 | 198 | 0.0 | 0.0 | 0.00 | 0.00 | 0.00 | 21 | 999.5 |
| 20260504011513 | 23 | 212 | 3.2 | 0.0 | 0.00 | 0.00 | 0.00 | 22 | 999.6 |
| 20260504010010 | 23 | 243 | 0.0 | 0.0 | 0.00 | 0.00 | 0.00 | 20 | 999.9 |
| 20260504004610 | 23 | 242 | 4.8 | 0.0 | 0.00 | 0.00 | 0.00 | 19 | 999.9 |
| 20260504003015 | 23 | 20 | 0.0 | 0.0 | 0.00 | 0.00 | 0.00 | 21 | 1000.0 |
| 20260504001509 | 23 | 5 | 0.0 | 0.0 | 0.00 | 0.00 | 0.00 | 19 | 1000.1 |
| 20260504000007 | 23 | 5 | 8.0 | 0.0 | 0.00 | 0.00 | 0.00 | 19 | 1000.4 |
| 20260503234609 | 23 | 349 | 9.7 | 0.0 | 0.00 | 0.00 | 0.00 | 21 | 1000.3 |
| 20260503233009 | 23 | 22 | 16.1 | 0.0 | 0.00 | 0.00 | 0.00 | 20 | 1000.4 |
| 20260503231508 | 23 | 199 | 0.0 | 0.0 | 0.00 | 0.00 | 0.00 | 20 | 1000.4 |
| 20260503230007 | 23 | 324 | 11.3 | 0.0 | 0.00 | 0.00 | 0.00 | 19 | 1000.7 |
| 20260503224605 | 23 | 298 | 0.0 | 0.0 | 0.00 | 0.00 | 0.00 | 20 | 1000.7 |
| 20260503223001 | 23 | 25 | 4.8 | 0.0 | 0.00 | 0.00 | 0.00 | 21 | 1001.1 |
| 20260503221602 | 23 | 350 | 1.6 | 0.0 | 0.00 | 0.00 | 0.00 | 24 | 1001.1 |
| 20260503220057 | 23 | 5 | 8.0 | 0.0 | 0.00 | 0.00 | 0.00 | 26 | 1001.3 |
| 20260503214555 | 23 | 238 | 12.9 | 0.0 | 0.00 | 0.00 | 0.00 | 23 | 1001.9 |
| 20260503213054 | 22 | 5 | 16.1 | 0.0 | 0.00 | 0.00 | 0.00 | 23 | 1002.1 |
| 20260503211552 | 23 | 23 | 6.4 | 0.0 | 0.00 | 0.00 | 0.00 | 26 | 1002.3 |
| 20260503210050 | 22 | 315 | 4.8 | 0.0 | 0.00 | 0.00 | 0.00 | 25 | 1002.5 |
| 20260503204547 | 23 | 194 | 3.2 | 0.0 | 0.00 | 0.00 | 0.00 | 25 | 1002.9 |
| 20260503203046 | 22 | 305 | 4.8 | 0.0 | 0.00 | 0.00 | 0.00 | 24 | 1003.0 |
| 20260503201544 | 22 | 360 | 16.1 | 0.0 | 0.00 | 0.00 | 0.00 | 27 | 1003.2 |
| 20260503200041 | 21 | 280 | 14.5 | 0.0 | 0.00 | 0.00 | 0.00 | 29 | 1003.3 |
| 20260503194539 | 22 | 20 | 1.6 | 0.0 | 0.00 | 0.00 | 0.00 | 31 | 1003.8 |
| 20260503193039 | 21 | 355 | 11.3 | 0.0 | 0.00 | 0.00 | 0.00 | 29 | 1004.0 |
| 20260503191536 | 21 | 343 | 3.2 | 0.0 | 0.00 | 0.00 | 0.00 | 29 | 1004.4 |
| 20260503190033 | 20 | 349 | 12.9 | 0.0 | 0.00 | 0.00 | 0.00 | 30 | 1004.8 |
| 20260503184539 | 20 | 36 | 8.0 | 0.0 | 0.00 | 0.00 | 0.00 | 34 | 1005.0 |
| 20260503183025 | 20 | 41 | 0.0 | 0.0 | 0.00 | 0.00 | 0.00 | 33 | 1005.1 |
| 20260503181523 | 20 | 304 | 0.0 | 0.0 | 0.00 | 0.00 | 0.00 | 32 | 1005.5 |
| 20260503180020 | 19 | 5 | 0.0 | 0.0 | 0.00 | 0.00 | 0.00 | 37 | 1005.9 |
| 20260503174520 | 18 | 337 | 0.0 | 0.0 | 0.00 | 0.00 | 0.00 | 38 | 1006.3 |
| 20260503173019 | 18 | 360 | 0.0 | 0.0 | 0.00 | 0.00 | 0.00 | 42 | 1006.4 |
| 20260503171515 | 17 | 30 | 0.0 | 0.0 | 0.00 | 0.00 | 0.00 | 46 | 1006.6 |